Zurück zum Katalog

STARLINK-30357

AktivKommunikationVLEO
NORAD 57750·PAYLOAD·🇺🇸 United States

Gestartet Sep 1, 2023 von Cape Canaveral Space Force Station

Loading…

Nächste Überflüge (nächste 24 Stunden)

TLE

AktuellSource: CelesTrak SupGP

Epoche: Sep 14, 2026, 20:56 UTC

1 57750C 23131U   26257.87270833  .00011773  00000+0  42646-3 0  2574
2 57750  43.0028 191.4658 0001390 260.0153  54.7381 15.27570576    11

Verfolge STARLINK-30357 in Echtzeit mit AllMySat

Download on the App Store